Location: Unspecified
(35.6961°N, 0.0000°E)
Time: 00:37:38
(UTC+00:00)

Explorer 11/Cluster Stage 4 - Pass Details

Date: 22 May 2019
Orbit: 467 x 1260 km, 28.8° (Epoch: 26 June)

Event Time Altitude Azimuth Distance (km) Brightness Sun altitude
Rises 07:23:22 0° 259° (W) 2,556 8.7 29.0°
Reaches altitude 10° 07:26:02 10° 241° (WSW) 1,626 7.8 29.5°
Maximum altitude 07:28:43 19° 193° (SSW) 1,142 7.4 30.0°
Drops below altitude 10° 07:31:24 10° 145° (SE) 1,616 8.7 30.6°
Sets 07:34:01 0° 127° (SE) 2,534 9.9 31.1°
